This is the latest recevied weather packets stored in our database for station/object DG1GMY-13. If no packets are shown the sender has not sent any weather packets the latest 10 day(s).
| Time | Temp. | Humidity | Pressure | Rain* | Wind** | Luminosity | Snow |
|---|---|---|---|---|---|---|---|
| 1787477308 | 18.33° C | 65% | 1024.2 hPa | - | - | - | - |
| 1787475502 | 17.78° C | 71% | 1024.4 hPa | - | - | - | - |
| 1787473696 | 16.67° C | 74% | 1024.3 hPa | - | - | - | - |
| 1787471890 | 15° C | 83% | 1024.3 hPa | - | - | - | - |
| 1787470084 | 15° C | 82% | 1024.2 hPa | - | - | - | - |
| 1787468279 | 15° C | 77% | 1024.4 hPa | - | - | - | - |
| 1787466473 | 15.56° C | 76% | 1024.2 hPa | - | - | - | - |
| 1787464667 | 14.44° C | 76% | 1024 hPa | - | - | - | - |
| 1787462861 | 13.89° C | 76% | 1024 hPa | - | - | - | - |
| 1787461056 | 13.89° C | 75% | 1023.8 hPa | - | - | - | - |
| 1787459249 | 13.89° C | 75% | 1023.5 hPa | - | - | - | - |
| 1787457443 | 13.33° C | 78% | 1023.2 hPa | - | - | - | - |
| 1787455637 | 13.89° C | 76% | 1023.1 hPa | - | - | - | - |
| 1787453831 | 13.33° C | 78% | 1023.2 hPa | - | - | - | - |
| 1787452025 | 13.89° C | 77% | 1023.2 hPa | - | - | - | - |
| 1787450219 | 15° C | 75% | 1023 hPa | - | - | - | - |
| 1787448412 | 14.44° C | 77% | 1023 hPa | - | - | - | - |
| 1787444800 | 14.44° C | 80% | 1022.9 hPa | - | - | - | - |
| 1787442994 | 14.44° C | 72% | 1023 hPa | - | - | - | - |
| 1787441188 | 15° C | 79% | 1023.2 hPa | - | - | - | - |
| 1787439383 | 15° C | 78% | 1023 hPa | - | - | - | - |
| 1787437577 | 16.11° C | 77% | 1023 hPa | - | - | - | - |
| 1787433964 | 15° C | 80% | 1022.9 hPa | - | - | - | - |
| 1787432159 | 15.56° C | 78% | 1022.7 hPa | - | - | - | - |
| 1787430352 | 15° C | 77% | 1022.7 hPa | - | - | - | - |
* Rain since midnight (hover to see other rain measurements)
** Current wind speed in m/s (hover to see current wind gust speed)